#timestamp,LO_Frequency,Hit,StdDev 
1529596815.1,286047000.1,N
1529596816.0,286047000.1,N
1529596835.8,286047000.6,N
1529596855.7,286046999.9,N
1529596875.5,286046999.8,N
1529596895.3,286047001.5,N
1529596915.2,286047000.1,N
1529596935.0,286047002.4,N
1529596935.9,286047002.4,N
1529596955.8,286047000.7,N
1529596975.6,286047000.8,N
1529596995.4,286047000.6,N
1529597015.3,286047000.3,N
1529597035.1,286047002.8,N
1529597055.8,286047000.9,N
1529597075.7,286047001.2,N
1529597095.5,286046998.5,N
1529597115.4,286047000.9,N
1529597135.2,286047001.2,N
1529597155.0,286046998.3,N
1529597155.9,286046998.3,N
1529597175.8,286046998.7,N
1529597195.6,286046998.5,N
1529597215.5,286046998.8,N
1529597235.3,286046998.5,N
1529597255.1,286046998.5,N
1529597275.9,286046998.2,N
1529597295.7,286046996.5,N
1529597315.5,286046999.5,N
1529597335.4,286046999.1,N
1529597355.2,286046998.1,N
1529597375.1,286046998.8,N
1529597376.0,286046998.8,N
1529597395.8,286046998.9,N
1529597415.6,286046999.6,N
1529597435.5,286046997.2,N
1529597455.3,286046996.9,N
1529597475.1,286046999.5,N
1529597495.9,286046996.7,N
1529597515.7,286046997.2,N
1529597535.6,286046997.0,N
1529597555.4,286046998.0,N
1529597575.2,286046996.4,N
1529597595.1,286046993.3,Y
1529597596.0,286046993.3,P
1529597615.8,286046995.7,N
1529597635.7,286046996.3,N
1529597655.5,286046995.5,N
1529597675.3,286046995.9,N
1529597695.9,286046994.0,Y
1529597715.8,286046996.7,P
1529597735.6,286046996.9,P
1529597755.4,286046998.4,P
1529597775.3,286047001.2,N
1529597795.1,286046998.8,N
1529597815.8,286047000.4,N
1529597835.7,286047002.0,N
1529597855.5,286047004.4,N
1529597875.3,286047002.0,N
1529597895.2,286047001.9,N
1529597915.0,286047002.3,N
1529597915.9,286047002.3,N
1529597935.8,286047001.1,N
1529597955.6,286046998.2,N
1529597975.4,286046998.9,N
1529597995.3,286046999.1,N
1529598015.1,286046998.8,N
1529598035.8,286046998.5,N
1529598055.7,286047001.0,N
1529598075.5,286046999.9,N
1529598095.4,286047000.6,N
1529598115.2,286047001.1,N
1529598135.0,286046998.1,N
1529598135.9,286046998.1,N
1529598155.8,286047000.8,N
1529598175.6,286046998.2,N
1529598195.4,286046998.7,N
1529598215.3,286046996.9,N
1529598235.1,286046997.0,N
1529598255.9,286046996.8,N
1529598275.7,286046994.9,N
1529598295.5,286046997.7,N
1529598315.4,286046997.4,N
1529598335.2,286046996.5,N
1529598355.0,286047000.7,N
1529598356.0,286047000.7,N
1529598375.8,286047000.9,N
1529598395.6,286047000.1,N
1529598415.5,286047000.9,N
1529598435.3,286046998.3,N
1529598455.1,286047001.2,N
1529598475.9,286046998.5,N
1529598495.7,286046996.5,N
1529598515.6,286046997.5,N
1529598535.4,286046996.2,N
1529598555.2,286046995.4,N
1529598575.1,286046996.8,N
1529598576.0,286046996.8,N
1529598595.8,286046997.7,N
1529598615.7,286046997.8,N
1529598635.5,286046997.3,N
1529598655.3,286046997.8,N
1529598675.2,286046997.2,N
1529598695.0,286046995.3,N
1529598695.9,286046995.3,N
1529598715.7,286046995.6,N
1529598735.6,286046995.4,N
1529598755.4,286046995.0,N
1529598775.3,286046997.8,N
1529598795.1,286046996.5,N
1529598796.0,286046996.5,N
1529598815.8,286046997.4,N
1529598835.7,286046996.8,N
1529598855.5,286046996.7,N
1529598875.3,286046997.2,N
1529598895.2,286046997.8,N
1529598915.0,286046994.9,Y
1529598915.9,286046994.9,P
1529598935.8,286047000.9,N
1529598955.6,286047000.7,N
1529598975.4,286047002.7,N
1529598995.3,286046998.2,N
1529599015.1,286046998.7,N
1529599035.8,286046998.1,N
1529599055.7,286046998.5,N
1529599075.5,286046999.0,N
1529599095.4,286046999.3,N
1529599115.2,286046998.7,N
1529599135.0,286046998.3,N
1529599135.9,286046998.3,N
1529599155.8,286046999.3,N
1529599175.6,286046999.0,N
1529599195.4,286046998.5,N
1529599215.3,286047000.4,N
1529599235.1,286047000.6,N
1529599255.9,286046998.6,N
1529599275.7,286047001.2,N
1529599295.5,286046999.7,N
1529599315.4,286047000.2,N
1529599335.2,286047001.8,N
1529599355.0,286047001.3,N
1529599355.9,286047001.3,N
1529599375.8,286047003.8,N
1529599395.6,286047005.3,N
1529599415.5,286047004.5,N
1529599435.3,286047007.0,Y
1529599455.1,286047005.6,P
1529599475.9,286047005.4,N
1529599495.7,286047005.1,N
1529599515.6,286047005.1,N
1529599535.4,286047005.4,N
1529599555.2,286047005.7,N
1529599575.1,286047005.5,N
1529599576.0,286047005.5,Y
1529599595.8,286046999.0,P
1529599615.6,286046997.0,N
1529599635.5,286046997.4,N
1529599655.3,286046997.8,N
1529599675.2,286046999.6,N
1529599695.9,286046996.6,N
1529599715.7,286046999.4,N
1529599735.6,286046999.0,N
1529599755.4,286046997.0,N
1529599775.2,286046997.0,N
1529599795.1,286046997.5,N
1529599796.0,286046997.5,N
1529599815.8,286046997.5,N
1529599835.7,286046996.7,N
1529599855.5,286046999.5,N
1529599875.3,286046998.8,N
1529599895.2,286047000.8,N
1529599915.9,286047000.9,N
1529599935.7,286046998.4,N
1529599955.6,286046999.0,N
1529599975.6,286046999.2,N
1529599995.4,286046999.1,N
1529600015.2,286046997.4,N
1529600035.1,286046997.2,N
1529600036.0,286046997.2,N
1529600055.8,286046999.2,N
1529600075.7,286046997.1,N
1529600095.5,286046999.6,N
1529600115.3,286046999.6,N
1529600135.2,286046999.5,N
1529600155.0,286046996.5,N
1529600155.9,286046996.5,N
1529600175.7,286047001.2,N
1529600195.6,286047000.9,N
1529600215.4,286047000.6,N
1529600235.3,286047000.8,N
1529600255.1,286047000.6,N
1529600256.0,286047000.6,N
1529600275.8,286047000.6,N
1529600295.7,286047000.0,N
1529600315.5,286046999.9,N
1529600335.3,286047000.4,N
1529600355.2,286047000.9,N
1529600375.0,286047001.0,N
1529600375.9,286047001.0,N
1529600395.8,286047000.1,N
